Vorticity
14 11 8 6 5 4 5 6 9 12 15 17 18 18 17 17 17 18 18 18 18 19 19 18 18 17 16 15 14 13 12 11 11 11 11 11 11 11 11 10 11 12 12 12 13 13 13 13 14 13 13 13 14 14 16 19 21 24 25 26 27 25 23 23 22 21 20 18 16 14 11 10 10 10 9 8 9 9 10 9 7 7 9 9 9 9 8
9 6 5 5 6 9 12 14 16 16 16 15 14 14 13 14 14 14 15 15 15 16 15 15 15 14 13 12 11 12 11 10 10 10 10 10 10 11 12 12 12 13 13 14 14 14 16 16 16 17 19 22 25 28 29 30 28 26 23 20 17 13 12 13 14 14 14 14 14 13 12 9 9 11 11 12 12 11 9 7 7 10 11 9 9 9 7
5 5 7 10 13 16 16 16 16 15 15 15 15 15 15 16 15 15 15 15 15 14 14 14 13 12 13 12 10 11 9 8 9 10 12 13 14 15 16 16 17 18 18 19 20 21 23 24 26 29 31 32 30 27 22 18 14 10 7 7 7 5 4 4 5 4 2 3 6 9 10 8 8 11 14 15 15 11 9 10 10 10 9 8 8 8 7
8 11 14 17 18 18 17 17 18 18 18 18 18 18 18 19 19 19 19 18 18 17 15 14 12 10 10 9 8 10 11 13 16 17 19 20 19 21 22 22 23 24 24 26 27 28 29 29 29 27 23 18 13 9 6 3 3 4 2 2 4 3 2 3 4 4 4 5 6 7 7 9 10 11 13 15 15 13 13 13 12 10 10 9 9 8 9
15 17 18 18 17 17 17 16 16 16 16 17 18 17 17 18 17 17 16 14 13 12 10 10 9 8 10 12 13 16 19 20 20 20 21 22 21 23 23 23 23 23 23 24 24 24 23 20 16 10 6 4 2 1 2 1 2 3 2 2 4 4 2 3 4 4 5 6 7 7 6 8 10 11 15 17 16 16 16 14 13 13 12 12 12 11 11
19 18 16 15 13 13 12 12 13 14 13 14 15 14 14 15 13 11 11 9 7 8 9 10 10 12 15 16 17 18 18 18 17 18 19 18 18 20 18 17 19 18 18 18 16 14 10 6 5 2 0 2 2 0 1 2 3 4 2 3 5 4 2 3 4 4 4 5 6 6 7 8 9 11 15 16 16 17 16 15 15 15 14 13 12 12 12
15 13 11 11 10 10 11 11 11 12 11 12 12 11 11 11 9 8 8 9 9 9 11 12 12 13 15 14 14 13 14 14 14 14 15 13 13 15 14 13 14 13 12 11 7 5 3 1 2 3 1 3 4 3 2 2 3 4 4 3 5 5 4 4 5 4 3 4 5 5 7 8 8 10 12 13 14 15 15 16 16 15 13 12 10 11 12
9 9 8 8 9 9 9 10 10 11 11 11 10 10 9 9 9 8 9 10 12 11 11 12 12 11 12 11 11 11 11 12 11 11 12 11 11 12 10 9 9 7 6 5 2 1 2 2 3 4 4 4 6 6 6 5 5 5 7 6 5 6 5 5 6 5 3 5 5 4 7 7 7 9 11 12 13 14 15 16 14 11 10 9 8 9 10
6 6 6 6 7 7 7 8 8 9 10 10 9 9 9 8 9 10 10 10 11 10 10 11 11 10 10 10 10 11 10 10 10 10 9 9 9 9 7 5 5 5 4 5 4 4 6 7 8 9 9 9 10 11 11 10 9 9 10 9 8 8 8 7 7 6 5 6 5 5 6 6 7 10 11 11 12 12 14 13 10 8 8 7 8 8 7
4 5 6 6 7 7 7 7 7 8 10 10 9 9 9 8 8 10 11 10 10 10 10 11 11 10 10 9 9 10 9 9 10 9 9 9 8 8 7 5 7 8 7 8 10 11 11 11 11 12 13 11 9 11 12 9 9 10 11 11 11 10 9 9 9 8 7 7 6 6 6 5 7 10 10 12 12 11 12 11 9 7 7 8 8 8 8
5 6 7 8 9 9 8 8 7 8 9 10 9 9 9 9 8 10 11 10 9 10 9 10 11 10 9 9 9 9 9 9 9 8 9 9 9 9 10 9 10 11 11 11 12 12 11 10 8 7 10 9 5 6 10 8 6 8 10 10 11 11 11 11 10 9 8 8 7 7 5 5 7 8 10 12 12 11 12 11 8 7 7 9 9 9 11
5 7 8 10 10 10 10 9 8 8 9 10 10 8 8 9 8 9 11 10 9 10 10 10 11 10 9 9 9 9 8 8 9 9 9 9 9 10 11 11 11 10 11 10 8 7 7 6 4 3 5 7 5 4 7 8 6 7 8 9 10 9 11 13 12 10 10 9 8 7 6 6 7 7 10 12 12 13 14 11 8 7 9 10 10 12 14
6 8 10 11 11 11 10 10 9 9 9 10 10 8 8 9 8 8 10 10 9 10 10 10 10 10 9 9 9 8 8 8 10 9 9 9 10 10 10 10 9 7 7 7 5 4 5 4 4 3 2 4 6 5 5 5 5 5 6 8 9 8 10 12 11 10 11 9 8 8 6 6 6 8 10 12 12 13 13 10 8 8 10 11 13 14 15
7 10 11 12 11 10 10 10 10 10 10 10 10 9 8 8 7 7 10 10 9 10 10 9 9 9 9 9 9 8 8 9 9 9 9 9 9 9 8 7 7 4 4 4 3 2 3 5 5 4 4 4 2 3 6 5 3 5 6 6 7 8 8 10 10 10 10 11 10 10 8 6 6 9 10 11 12 13 11 9 8 9 10 12 14 15 16
8 11 12 11 10 10 10 10 10 11 11 10 10 9 8 8 7 7 9 9 9 10 9 9 9 9 9 9 8 8 9 9 8 8 9 9 7 7 6 5 6 5 2 3 5 4 1 3 6 3 3 7 4 -1 4 7 2 2 7 7 6 8 9 10 11 10 10 11 10 9 8 7 7 8 10 11 12 11 9 8 8 9 10 13 14 15 16
10 12 11 10 9 9 9 10 11 11 12 11 10 9 7 8 8 7 7 8 9 9 9 8 8 9 9 8 8 9 9 9 8 7 7 8 6 6 6 5 5 7 5 2 4 7 3 1 6 3 -3 4 9 2 1 9 5 1 6 7 5 7 8 8 12 11 10 12 12 8 6 7 7 8 10 11 12 10 8 6 7 8 9 12 14 15 17
11 12 10 8 9 9 9 11 11 12 13 11 10 9 8 7 8 8 7 7 8 8 8 9 9 9 9 8 7 9 9 8 8 7 6 7 6 5 5 6 3 4 7 4 1 5 5 -1 4 8 -3 -4 8 7 1 8 9 4 8 9 5 7 8 7 11 12 11 13 14 9 7 7 7 8 9 11 12 10 6 5 5 6 8 11 13 15 17
12 11 8 7 8 9 10 11 12 13 14 12 10 9 8 7 8 7 7 7 7 7 8 9 8 7 8 9 7 8 8 7 7 7 5 5 6 5 3 6 5 0 4 7 1 1 7 1 -1 9 4 -5 3 8 3 6 8 5 9 11 7 8 9 6 8 11 11 12 14 11 9 8 8 8 9 11 12 9 7 6 5 4 6 9 12 14 16
11 9 7 6 8 9 9 11 12 14 15 13 12 9 8 8 8 7 8 8 7 6 7 9 9 6 7 9 8 7 7 6 6 7 5 3 5 6 2 2 6 3 -0 6 3 -1 6 5 -2 5 8 -2 1 8 5 5 7 6 8 10 7 9 10 6 7 10 10 11 12 11 10 9 8 8 9 11 11 9 8 7 4 3 5 7 10 12 14
10 7 6 6 7 9 9 10 12 15 15 14 13 10 9 10 8 7 8 8 7 7 6 8 9 7 5 7 7 7 6 5 5 6 6 3 3 7 4 -0 5 6 -0 3 5 0 3 6 0 4 8 1 1 7 5 4 6 6 9 10 8 10 11 7 6 9 9 10 10 10 9 9 7 7 9 11 11 9 9 7 4 3 4 5 8 10 12
9 6 4 5 7 8 9 9 12 15 15 15 14 12 11 10 8 8 10 8 7 8 7 6 8 8 7 5 6 7 5 5 5 4 5 5 2 4 6 2 4 7 2 2 5 2 4 6 1 3 7 3 2 5 5 5 6 6 9 11 9 10 12 8 6 9 9 10 10 9 8 8 8 7 8 10 11 10 10 8 5 4 3 3 5 7 9
8 5 4 6 7 8 9 9 11 13 13 13 14 13 12 11 9 10 10 7 8 10 9 6 6 8 9 6 5 6 4 4 7 4 3 6 4 2 5 4 3 5 4 4 5 3 5 7 3 2 6 4 2 4 4 4 5 6 9 11 10 11 12 9 8 9 9 9 11 11 9 8 8 8 8 10 11 10 11 9 6 5 4 3 4 6 6
8 6 5 6 8 8 9 9 10 11 12 12 13 14 13 11 10 11 10 8 9 9 9 8 6 7 10 6 4 7 5 2 6 6 4 4 4 3 4 3 3 5 4 4 6 4 3 5 5 3 4 3 3 4 4 4 5 7 9 10 9 11 11 10 9 9 9 9 11 12 10 8 7 7 8 10 11 11 11 10 7 6 6 5 5 5 5
8 7 6 7 8 9 9 9 10 11 10 11 12 13 13 12 11 11 11 10 9 8 9 10 7 6 9 6 4 8 8 2 3 6 6 5 4 3 4 2 3 6 4 3 6 6 3 4 5 4 3 3 4 5 4 4 5 7 8 9 9 10 11 11 9 7 8 10 11 12 11 8 8 8 7 8 11 11 11 11 9 8 7 6 7 6 5
9 7 7 7 8 8 9 9 9 10 10 10 11 11 13 12 11 11 11 11 10 8 9 11 7 6 10 8 3 7 10 6 4 4 5 7 5 3 4 4 3 5 6 5 6 6 5 5 5 4 4 3 4 5 6 5 5 7 8 8 8 9 10 11 10 8 8 9 10 12 12 9 8 8 7 7 10 11 11 11 10 9 8 7 8 8 6
9 8 7 7 7 8 9 9 9 9 10 10 9 10 11 12 12 12 11 12 12 9 9 11 8 6 11 10 4 6 9 9 7 6 5 7 7 5 5 6 5 5 6 7 7 5 6 6 6 6 6 4 4 6 7 5 5 8 9 8 8 9 9 10 10 9 8 8 8 11 12 10 9 8 7 7 9 10 11 11 11 11 9 8 9 9 8
9 8 8 7 7 7 8 8 8 8 9 9 8 9 10 11 13 13 11 12 14 11 11 12 9 7 11 10 6 7 10 9 8 8 7 8 8 7 7 7 7 6 6 7 7 6 6 7 5 6 8 6 4 6 8 6 5 9 10 9 8 9 9 9 9 9 9 9 7 8 10 11 10 8 7 7 8 9 10 11 12 12 9 8 9 10 9
9 9 9 8 8 8 7 8 7 7 8 8 8 9 10 10 12 13 11 13 15 13 13 13 11 10 12 10 7 9 10 10 9 8 8 8 8 8 7 7 8 8 6 6 7 6 6 6 5 5 7 7 5 6 9 8 6 8 11 10 9 9 9 9 9 8 8 9 8 7 9 11 11 9 8 6 7 8 10 11 13 13 10 8 9 9 10
9 9 9 9 9 8 8 8 8 9 9 8 9 10 10 10 11 12 13 14 15 15 15 13 11 12 12 11 11 12 11 10 11 10 9 10 9 9 8 8 8 8 7 7 7 6 6 7 6 6 7 7 7 8 10 9 7 8 11 10 8 8 9 9 9 8 8 9 9 7 8 10 11 10 8 6 6 8 10 11 12 13 11 9 9 9 10
9 9 10 9 9 9 9 10 10 10 10 9 9 10 10 10 11 12 13 16 17 18 17 15 13 13 12 12 14 14 12 13 14 13 12 12 11 11 11 11 10 9 9 9 9 8 8 9 8 8 8 8 9 10 9 8 9 9 10 10 9 9 9 8 8 8 8 9 10 7 7 9 11 11 9 7 7 7 9 11 12 13 12 10 9 10 10
8 8 8 8 8 8 9 10 9 9 9 9 9 9 9 9 11 11 12 14 17 18 19 18 16 14 14 14 13 12 14 16 14 13 15 14 14 15 14 13 14 13 12 13 12 11 12 12 11 11 10 10 12 12 9 9 10 10 10 10 9 9 9 8 8 7 7 8 10 9 7 8 11 11 10 8 7 6 8 10 11 13 13 11 9 10 10
6 7 7 7 7 7 7 8 8 7 8 8 8 8 9 9 10 10 10 11 14 16 18 19 17 16 17 17 13 11 15 16 11 12 15 14 13 15 15 14 16 15 13 14 14 14 16 16 14 14 13 12 14 13 10 10 11 10 9 10 10 9 9 8 8 7 6 7 9 9 7 7 10 12 10 9 8 7 7 9 10 12 13 12 10 10 10
5 5 5 5 6 6 6 6 6 6 7 7 6 7 8 8 9 9 10 10 10 13 15 17 16 15 18 19 14 11 16 15 11 12 15 12 11 14 14 13 14 13 12 13 14 15 18 18 16 15 14 13 14 13 11 11 10 9 9 10 10 9 9 8 8 7 6 7 8 9 8 7 9 11 11 9 9 8 7 9 10 11 13 13 11 10 10
4 5 4 4 4 4 4 4 5 5 5 5 5 5 5 5 6 7 8 9 9 11 13 14 13 13 18 20 14 11 16 16 12 12 13 10 10 13 13 12 12 11 11 14 15 15 17 18 17 16 15 14 14 12 12 11 10 9 10 10 9 10 10 8 8 7 6 6 7 9 9 7 7 11 12 9 9 9 7 8 10 10 12 13 12 11 10
4 4 4 3 3 3 3 3 3 4 4 4 4 4 4 4 4 4 4 5 7 9 11 12 10 11 17 20 15 12 16 16 12 13 13 9 9 11 11 11 11 9 10 12 12 13 15 17 17 17 17 16 15 13 12 12 10 9 11 11 9 10 10 8 8 7 6 6 7 8 9 7 6 10 12 10 9 9 8 8 9 10 11 13 13 12 11
4 3 4 4 3 3 3 3 3 3 4 4 3 3 4 3 3 4 3 3 4 5 8 11 10 9 14 18 15 14 17 17 14 14 13 10 9 10 9 9 10 8 9 10 9 10 13 14 15 18 18 17 17 14 13 13 12 10 11 11 10 10 10 9 8 7 6 6 6 8 10 8 6 9 12 10 9 9 9 9 9 9 11 13 13 13 11
4 3 3 4 4 3 3 3 3 3 3 4 4 4 4 4 3 3 4 3 2 2 4 8 9 8 11 15 13 13 16 17 16 16 15 11 11 10 8 8 8 7 8 8 7 8 10 10 12 16 17 17 19 18 15 13 13 12 11 11 10 10 10 9 8 7 6 6 6 7 10 9 6 8 11 11 9 9 10 10 9 9 11 13 13 13 12
3 4 4 3 4 4 3 3 4 3 3 4 4 3 4 5 4 4 4 4 4 2 1 4 6 6 9 13 12 11 14 16 16 17 16 13 12 12 10 8 8 7 7 7 6 7 8 7 9 13 15 16 20 21 17 15 14 13 12 11 11 11 10 10 8 7 7 6 5 6 9 9 7 7 10 11 9 8 9 11 10 10 11 12 13 14 13
2 3 4 3 4 5 3 2 4 4 2 4 4 3 4 5 4 4 4 5 5 3 2 2 3 3 6 10 11 9 11 15 15 16 16 13 13 14 12 8 8 8 7 6 6 7 7 6 7 9 12 15 19 21 20 17 15 14 13 12 12 12 11 10 9 7 6 6 6 5 8 9 7 7 9 10 10 8 9 10 11 10 10 12 13 14 13
1 2 4 4 4 5 4 3 4 4 3 3 4 4 3 4 4 3 4 5 6 5 3 3 3 1 2 7 9 8 10 12 14 15 16 15 14 15 13 10 10 10 7 6 6 6 5 6 7 7 8 12 16 19 21 20 18 17 15 12 12 13 11 10 10 8 6 6 6 5 7 9 8 7 8 10 10 9 8 10 11 11 10 12 13 13 14
2 2 4 4 3 4 5 3 3 4 3 3 4 4 3 4 5 4 3 4 6 6 4 4 5 2 0 3 6 7 9 11 12 13 15 15 15 16 14 11 11 12 9 7 7 7 5 5 6 6 6 9 12 15 19 20 20 19 17 14 13 14 12 10 10 9 7 7 6 5 6 8 8 7 8 9 10 9 8 9 11 11 10 11 13 13 14
3 2 3 4 3 4 5 2 2 4 3 2 4 5 3 3 5 4 2 3 5 6 5 5 6 4 1 1 4 5 6 9 12 11 11 13 15 15 15 14 13 12 11 9 8 8 7 6 6 6 6 7 9 12 16 19 20 20 19 16 14 14 13 11 10 9 8 7 6 6 6 7 8 7 8 8 9 9 8 8 10 11 10 11 12 13 14
4 2 3 4 2 3 4 2 1 4 3 2 4 5 3 3 6 5 3 4 5 5 5 5 6 6 3 2 3 3 3 7 12 10 8 12 13 12 13 16 14 12 13 12 10 9 9 8 7 6 6 6 7 9 12 16 19 20 20 18 16 15 14 12 10 9 8 7 7 6 6 7 7 7 7 8 9 9 8 7 9 11 11 11 12 13 14
5 2 2 3 2 2 3 2 2 3 3 2 4 5 3 3 6 5 4 4 4 4 4 4 6 7 5 2 4 4 1 4 10 9 7 11 13 10 11 15 14 12 14 14 11 10 11 10 8 8 6 6 7 8 10 13 17 19 20 19 17 17 16 13 11 10 9 8 7 6 6 7 7 7 7 8 9 9 8 7 8 10 11 10 11 13 14
3 1 2 3 1 1 2 2 2 3 3 3 4 5 3 4 5 5 4 5 5 5 4 3 5 7 6 4 5 4 0 3 8 7 6 11 13 9 9 13 13 11 14 14 11 11 12 12 11 10 8 6 7 7 8 11 15 18 20 20 18 18 17 14 11 10 9 8 8 7 6 7 7 6 6 7 8 9 8 7 8 10 11 10 10 13 14
1 0 2 3 1 1 3 2 2 3 3 3 4 5 4 4 5 5 5 5 6 5 4 3 5 7 6 5 6 5 1 3 6 5 5 10 12 7 8 13 12 10 12 14 12 11 13 13 13 11 9 7 7 7 7 9 12 16 19 20 19 19 19 16 12 10 10 9 8 7 6 7 7 7 6 7 8 9 9 7 7 9 11 10 10 12 14
0 1 3 3 2 2 3 3 2 3 3 4 4 5 4 4 5 5 4 5 6 6 5 3 4 6 5 6 7 5 2 3 5 4 4 8 9 6 8 13 12 9 11 13 12 12 12 14 14 12 9 9 9 7 6 8 10 13 17 19 19 20 21 18 13 11 10 9 9 8 7 7 7 7 6 6 7 9 9 8 7 9 10 10 9 11 13
1 2 3 2 3 3 3 3 3 3 3 4 5 5 5 4 4 4 4 5 5 6 5 4 4 5 5 6 8 7 3 4 5 3 3 7 8 8 8 10 10 10 11 12 12 12 12 13 14 13 10 10 10 9 7 7 9 11 14 17 19 21 22 20 15 12 10 9 9 8 7 7 7 7 7 6 7 8 9 8 7 8 10 10 9 9 12
2 3 3 3 3 4 4 4 4 3 3 4 6 5 5 5 4 4 5 5 5 5 5 5 4 4 4 5 7 7 6 4 4 4 4 6 8 8 7 8 9 11 11 11 12 12 11 11 13 13 11 11 12 10 8 7 8 9 12 15 18 21 23 21 17 13 11 10 9 8 8 7 7 7 7 6 6 8 9 8 7 8 10 11 10 9 11
3 3 3 4 4 4 4 4 4 3 3 5 5 5 5 5 5 4 5 5 5 5 6 5 4 4 4 5 6 8 7 5 5 5 4 5 6 7 8 8 8 10 11 12 12 11 10 11 12 12 12 12 12 12 10 9 7 7 10 13 17 21 23 22 18 14 12 10 10 9 8 8 8 7 7 7 7 8 9 8 7 7 10 11 10 9 10
2 3 3 3 3 4 4 4 3 3 4 5 5 5 5 5 5 5 5 5 5 5 5 5 4 4 4 4 6 8 8 6 6 5 4 4 6 7 7 7 8 9 11 13 13 11 9 10 11 11 12 13 12 12 12 10 7 6 9 11 15 20 24 23 19 15 12 10 10 9 8 8 8 8 7 7 7 8 9 8 6 7 9 11 11 10 9
2 3 4 3 3 4 4 3 3 4 4 4 4 5 5 5 5 5 5 5 5 6 5 5 5 5 4 4 5 7 8 6 6 6 5 4 5 6 6 6 7 8 9 13 15 12 9 10 11 11 11 12 13 13 14 12 8 6 8 10 13 19 23 23 20 16 13 10 10 9 9 9 9 8 7 7 7 9 9 8 6 6 8 11 11 10 10
Height
5790 5788 5787 5786 5784 5782 5780 5779 5777 5775 5773 5771 5769 5767 5765 5763 5761 5759 5757 5756 5754 5752 5750 5748 5747 5745 5743 5741 5739 5738 5736 5734 5732 5730 5728 5725 5723 5721 5718 5715 5713 5710 5708 5705 5703 5700 5698 5696 5693 5691 5688 5686 5683 5681 5679 5676 5674 5671 5669 5667 5664 5662 5660 5658 5655 5652 5649 5646 5643 5640 5636 5633 5629 5626 5623 5619 5616 5612 5609 5605 5602 5598 5594 5590 5587 5583 5579
5789 5788 5786 5785 5783 5781 5779 5778 5776 5774 5772 5770 5768 5766 5764 5762 5760 5758 5756 5755 5753 5751 5749 5748 5746 5744 5742 5740 5739 5737 5735 5733 5730 5728 5726 5724 5721 5718 5716 5713 5711 5708 5705 5703 5701 5698 5696 5694 5691 5689 5687 5684 5682 5680 5678 5675 5673 5671 5668 5666 5663 5661 5659 5656 5653 5651 5648 5644 5641 5638 5634 5631 5627 5624 5620 5616 5613 5609 5605 5601 5597 5594 5590 5586 5582 5578 5574
5789 5787 5786 5784 5782 5781 5779 5777 5775 5773 5771 5769 5767 5765 5763 5761 5760 5758 5756 5754 5752 5751 5749 5747 5745 5744 5742 5740 5738 5736 5734 5732 5729 5727 5725 5722 5719 5717 5714 5711 5709 5706 5704 5701 5699 5696 5694 5692 5690 5688 5686 5684 5682 5680 5678 5676 5673 5671 5668 5666 5663 5660 5658 5654 5651 5647 5644 5640 5637 5634 5631 5628 5624 5621 5617 5613 5609 5605 5601 5598 5594 5590 5586 5582 5578 5574 5570
5788 5787 5785 5783 5782 5780 5778 5777 5775 5772 5770 5769 5767 5765 5763 5761 5759 5758 5756 5754 5752 5750 5749 5747 5745 5743 5741 5739 5737 5735 5733 5731 5728 5726 5723 5721 5718 5715 5713 5710 5707 5705 5703 5700 5698 5696 5694 5692 5690 5688 5686 5684 5683 5681 5679 5676 5674 5671 5669 5666 5663 5660 5657 5653 5650 5646 5643 5640 5636 5633 5629 5625 5621 5617 5614 5610 5606 5602 5598 5594 5590 5586 5582 5578 5574 5570 5565
5788 5786 5785 5783 5782 5780 5778 5776 5774 5773 5771 5769 5767 5765 5763 5761 5759 5758 5756 5754 5753 5751 5749 5747 5745 5743 5741 5739 5737 5735 5732 5730 5727 5725 5722 5720 5717 5715 5712 5710 5707 5705 5703 5701 5699 5697 5695 5693 5691 5689 5688 5686 5684 5682 5679 5677 5674 5671 5669 5666 5662 5659 5656 5653 5649 5646 5643 5639 5636 5632 5628 5623 5619 5615 5611 5607 5603 5599 5594 5590 5586 5582 5578 5573 5569 5565 5560
5788 5787 5785 5784 5782 5780 5779 5777 5775 5773 5771 5769 5768 5766 5764 5762 5760 5758 5757 5755 5753 5751 5749 5747 5745 5743 5741 5739 5737 5734 5732 5729 5727 5725 5722 5720 5717 5715 5713 5710 5708 5706 5704 5702 5700 5698 5696 5695 5693 5691 5689 5687 5684 5682 5679 5677 5674 5671 5668 5665 5661 5658 5655 5652 5648 5645 5642 5638 5634 5630 5626 5621 5617 5612 5607 5603 5599 5595 5591 5587 5582 5578 5573 5568 5564 5560 5555
5789 5787 5786 5784 5783 5781 5780 5778 5776 5774 5772 5770 5768 5766 5765 5763 5761 5759 5757 5755 5753 5752 5750 5748 5746 5743 5741 5739 5736 5734 5732 5729 5727 5725 5722 5720 5718 5716 5713 5711 5709 5707 5705 5703 5701 5699 5698 5696 5694 5691 5689 5687 5684 5682 5679 5676 5673 5670 5667 5664 5661 5658 5654 5651 5647 5644 5640 5636 5632 5628 5623 5619 5614 5609 5604 5600 5595 5591 5587 5583 5578 5573 5569 5564 5560 5555 5551
5789 5788 5787 5785 5784 5782 5781 5779 5777 5775 5773 5771 5769 5767 5765 5764 5762 5760 5758 5756 5754 5752 5750 5748 5746 5743 5741 5739 5736 5734 5732 5730 5728 5725 5723 5721 5719 5716 5714 5712 5710 5708 5706 5704 5702 5701 5699 5696 5694 5692 5689 5687 5684 5682 5679 5676 5673 5670 5666 5663 5660 5656 5653 5649 5646 5642 5638 5634 5630 5625 5621 5616 5611 5606 5601 5596 5592 5587 5583 5578 5574 5569 5565 5560 5555 5550 5545
5790 5789 5788 5787 5785 5783 5782 5780 5778 5776 5774 5772 5770 5768 5766 5764 5762 5761 5759 5757 5755 5753 5750 5748 5746 5744 5741 5739 5737 5735 5733 5730 5728 5726 5724 5722 5719 5717 5715 5713 5711 5709 5707 5705 5703 5701 5699 5697 5694 5692 5689 5687 5684 5681 5678 5675 5672 5669 5665 5662 5659 5655 5652 5648 5644 5640 5636 5632 5628 5623 5618 5614 5609 5603 5598 5593 5588 5584 5579 5575 5569 5564 5560 5555 5550 5544 5539
5791 5790 5789 5788 5786 5784 5783 5781 5779 5777 5775 5773 5771 5769 5767 5765 5763 5761 5759 5757 5755 5753 5751 5749 5746 5744 5742 5740 5738 5736 5733 5731 5729 5727 5724 5722 5720 5718 5716 5714 5712 5710 5708 5706 5704 5701 5699 5697 5694 5692 5689 5686 5684 5681 5678 5675 5671 5668 5664 5661 5657 5654 5650 5646 5642 5638 5634 5629 5624 5620 5616 5611 5607 5601 5595 5590 5585 5581 5576 5571 5565 5559 5554 5549 5544 5539 5534
5793 5791 5790 5788 5787 5785 5783 5781 5779 5778 5776 5773 5771 5769 5767 5766 5764 5762 5760 5758 5755 5754 5751 5749 5747 5745 5743 5741 5739 5736 5734 5732 5730 5727 5725 5723 5721 5719 5717 5714 5712 5710 5708 5706 5704 5702 5699 5697 5694 5692 5689 5686 5683 5680 5677 5674 5670 5667 5663 5659 5655 5651 5647 5643 5639 5636 5631 5627 5622 5618 5613 5608 5603 5597 5592 5587 5582 5577 5573 5568 5561 5555 5550 5545 5539 5534 5528
5794 5792 5791 5789 5787 5786 5784 5782 5780 5778 5776 5774 5772 5770 5768 5766 5764 5762 5760 5758 5756 5754 5752 5750 5748 5746 5744 5742 5739 5737 5735 5732 5730 5728 5726 5723 5721 5719 5717 5715 5713 5711 5709 5707 5705 5702 5700 5697 5695 5692 5689 5686 5683 5680 5676 5673 5669 5665 5662 5658 5653 5649 5645 5641 5637 5632 5628 5624 5620 5615 5609 5603 5598 5594 5589 5584 5579 5573 5569 5565 5558 5552 5547 5541 5534 5528 5522
5795 5793 5791 5790 5788 5786 5784 5782 5780 5778 5776 5774 5773 5771 5769 5767 5765 5763 5761 5759 5757 5755 5753 5751 5749 5747 5744 5742 5740 5737 5735 5733 5731 5729 5726 5724 5722 5720 5718 5716 5714 5712 5710 5707 5705 5703 5700 5698 5695 5692 5689 5686 5682 5679 5676 5672 5668 5664 5660 5656 5651 5647 5643 5638 5633 5629 5624 5619 5614 5609 5605 5601 5596 5591 5585 5580 5575 5569 5565 5562 5556 5549 5542 5536 5529 5523 5516
5795 5794 5792 5790 5789 5787 5785 5783 5781 5779 5777 5775 5773 5771 5769 5768 5766 5764 5762 5760 5757 5755 5753 5751 5749 5747 5745 5743 5740 5738 5736 5734 5732 5729 5727 5725 5723 5721 5719 5717 5715 5713 5710 5708 5705 5703 5700 5697 5694 5691 5688 5685 5682 5678 5674 5670 5666 5662 5658 5653 5649 5645 5640 5635 5630 5625 5620 5615 5611 5607 5603 5598 5593 5587 5581 5575 5570 5564 5559 5555 5551 5544 5537 5531 5524 5517 5510
5796 5795 5793 5791 5789 5787 5785 5783 5781 5779 5777 5775 5773 5771 5770 5768 5766 5764 5762 5760 5758 5756 5754 5752 5750 5748 5746 5743 5741 5739 5737 5735 5732 5730 5728 5726 5724 5722 5720 5718 5715 5713 5711 5708 5705 5703 5700 5697 5694 5690 5687 5684 5680 5677 5672 5668 5664 5660 5656 5651 5646 5642 5637 5632 5627 5622 5617 5613 5609 5605 5600 5594 5588 5582 5577 5571 5565 5560 5554 5549 5545 5539 5532 5525 5518 5511 5504
5797 5795 5794 5792 5790 5788 5786 5783 5781 5779 5777 5776 5774 5772 5770 5768 5767 5765 5763 5761 5759 5756 5754 5753 5751 5749 5746 5744 5742 5740 5737 5735 5733 5731 5729 5727 5725 5723 5721 5718 5716 5713 5711 5708 5705 5702 5699 5696 5693 5689 5686 5682 5679 5675 5671 5667 5662 5658 5653 5649 5644 5639 5635 5630 5626 5621 5616 5611 5606 5600 5595 5590 5584 5578 5573 5567 5561 5555 5549 5544 5539 5533 5526 5519 5512 5505 5498
5798 5796 5794 5792 5790 5788 5786 5784 5782 5780 5778 5776 5774 5772 5771 5769 5767 5765 5763 5761 5759 5757 5755 5754 5751 5749 5747 5744 5742 5740 5738 5736 5734 5732 5730 5728 5725 5723 5721 5718 5716 5713 5711 5708 5705 5702 5698 5695 5692 5688 5685 5681 5677 5673 5669 5665 5661 5656 5652 5647 5642 5638 5633 5629 5624 5619 5614 5608 5603 5597 5591 5586 5580 5574 5569 5563 5557 5551 5544 5537 5532 5526 5520 5513 5506 5499 5493
5798 5797 5795 5793 5791 5789 5787 5784 5782 5780 5778 5776 5774 5773 5771 5769 5767 5766 5764 5762 5760 5758 5756 5754 5752 5749 5747 5745 5743 5741 5739 5737 5735 5732 5730 5728 5725 5723 5721 5718 5715 5713 5710 5707 5704 5701 5697 5694 5690 5687 5683 5679 5675 5671 5667 5663 5659 5655 5650 5646 5641 5636 5631 5626 5621 5616 5610 5605 5600 5595 5589 5583 5577 5571 5565 5559 5553 5547 5540 5533 5527 5521 5515 5509 5502 5495 5488
5799 5797 5795 5793 5791 5789 5787 5785 5783 5780 5778 5776 5774 5773 5772 5770 5768 5766 5764 5762 5760 5758 5756 5754 5752 5750 5748 5745 5743 5741 5739 5737 5735 5733 5730 5728 5725 5723 5720 5718 5715 5712 5709 5706 5703 5700 5696 5693 5689 5685 5682 5678 5674 5669 5665 5661 5656 5652 5647 5642 5638 5633 5628 5622 5617 5612 5607 5601 5596 5591 5586 5580 5573 5567 5561 5555 5548 5542 5537 5531 5525 5518 5511 5505 5498 5491 5484
5800 5798 5796 5794 5792 5790 5787 5785 5783 5781 5779 5777 5775 5774 5772 5770 5769 5767 5764 5762 5761 5759 5756 5754 5752 5750 5748 5746 5744 5742 5740 5737 5735 5732 5730 5728 5725 5723 5720 5717 5714 5711 5708 5705 5702 5698 5695 5691 5688 5684 5680 5676 5672 5667 5663 5658 5654 5649 5644 5639 5634 5629 5624 5619 5613 5608 5602 5597 5591 5585 5580 5574 5569 5563 5557 5552 5546 5540 5534 5528 5522 5515 5509 5502 5496 5489 5482
5800 5798 5797 5795 5793 5790 5788 5786 5784 5782 5780 5778 5776 5775 5773 5771 5769 5767 5764 5763 5761 5759 5756 5754 5752 5750 5748 5746 5744 5742 5740 5737 5735 5732 5730 5727 5725 5722 5719 5716 5713 5710 5707 5704 5700 5697 5693 5690 5686 5682 5678 5674 5670 5665 5660 5656 5651 5646 5641 5636 5631 5626 5620 5614 5609 5603 5598 5592 5586 5580 5575 5571 5566 5560 5555 5549 5543 5537 5531 5525 5519 5513 5507 5501 5494 5487 5479
5800 5799 5797 5795 5793 5791 5789 5787 5785 5783 5781 5779 5777 5775 5772 5771 5769 5767 5765 5764 5762 5759 5756 5754 5753 5751 5749 5746 5744 5742 5739 5737 5734 5732 5729 5727 5724 5721 5719 5715 5712 5709 5706 5702 5699 5695 5692 5688 5684 5680 5676 5672 5667 5663 5658 5653 5649 5644 5639 5634 5628 5623 5618 5612 5606 5601 5596 5590 5585 5580 5575 5570 5565 5559 5553 5547 5541 5535 5528 5522 5516 5511 5505 5498 5491 5484 5476
5801 5799 5798 5796 5794 5792 5790 5788 5786 5784 5781 5779 5777 5775 5773 5771 5770 5767 5766 5764 5761 5759 5757 5755 5753 5751 5748 5746 5744 5741 5739 5736 5734 5731 5729 5726 5723 5720 5717 5714 5711 5708 5704 5701 5698 5694 5690 5686 5682 5678 5674 5669 5665 5660 5656 5651 5646 5641 5636 5631 5626 5621 5616 5611 5605 5600 5596 5590 5585 5579 5573 5568 5563 5557 5551 5545 5539 5532 5526 5520 5514 5508 5502 5495 5488 5481 5474
5802 5800 5799 5797 5795 5793 5791 5789 5787 5785 5782 5780 5778 5776 5774 5773 5770 5768 5766 5764 5761 5759 5757 5755 5753 5750 5748 5746 5743 5741 5738 5736 5733 5731 5728 5725 5722 5719 5716 5713 5710 5706 5703 5699 5696 5692 5688 5684 5680 5676 5671 5667 5662 5657 5653 5648 5643 5638 5633 5629 5624 5618 5613 5608 5603 5598 5593 5588 5582 5576 5571 5565 5560 5554 5548 5542 5536 5530 5524 5518 5512 5505 5499 5492 5485 5478 5471
5802 5801 5799 5798 5796 5794 5792 5790 5788 5786 5784 5782 5780 5778 5776 5773 5771 5769 5766 5764 5761 5759 5757 5755 5753 5750 5748 5745 5743 5740 5738 5735 5732 5730 5727 5724 5721 5718 5715 5712 5708 5705 5701 5698 5694 5690 5686 5682 5678 5674 5669 5665 5660 5655 5650 5645 5640 5635 5630 5626 5621 5616 5611 5606 5601 5595 5590 5585 5579 5574 5569 5563 5557 5551 5545 5539 5534 5528 5521 5515 5509 5502 5496 5489 5482 5475 5468
5803 5802 5800 5798 5797 5795 5793 5791 5789 5787 5785 5783 5781 5779 5776 5774 5772 5769 5766 5764 5762 5759 5757 5755 5752 5750 5747 5745 5742 5740 5737 5734 5732 5729 5726 5723 5720 5717 5713 5710 5707 5703 5700 5696 5692 5688 5684 5680 5675 5671 5667 5662 5657 5653 5648 5643 5638 5633 5628 5622 5618 5613 5607 5603 5598 5593 5587 5582 5577 5572 5567 5561 5555 5549 5543 5537 5530 5524 5518 5512 5506 5499 5492 5486 5479 5471 5464
5804 5802 5801 5799 5797 5796 5794 5792 5790 5788 5786 5784 5782 5780 5777 5775 5772 5769 5767 5765 5762 5759 5757 5754 5752 5750 5747 5744 5742 5739 5736 5733 5731 5728 5725 5722 5718 5715 5712 5708 5705 5701 5697 5693 5689 5685 5681 5677 5673 5669 5664 5660 5655 5650 5645 5640 5635 5630 5625 5619 5614 5609 5604 5599 5594 5589 5584 5578 5573 5568 5563 5558 5552 5545 5539 5533 5527 5521 5515 5508 5502 5495 5489 5482 5475 5468 5461
5804 5803 5801 5800 5798 5797 5795 5793 5791 5789 5787 5785 5783 5781 5778 5775 5772 5770 5767 5765 5762 5759 5757 5754 5752 5749 5746 5744 5741 5738 5735 5733 5730 5726 5723 5720 5717 5713 5710 5706 5703 5699 5695 5691 5687 5683 5679 5674 5670 5666 5661 5657 5652 5647 5642 5637 5632 5627 5622 5617 5611 5606 5601 5595 5590 5585 5580 5575 5570 5564 5559 5553 5547 5541 5535 5530 5524 5518 5511 5504 5498 5491 5485 5478 5472 5465 5458
5805 5803 5802 5800 5799 5797 5796 5794 5792 5790 5788 5785 5783 5780 5778 5775 5773 5770 5768 5765 5762 5759 5757 5754 5751 5748 5746 5743 5740 5737 5734 5731 5728 5725 5722 5718 5715 5712 5708 5704 5700 5696 5693 5689 5684 5680 5676 5672 5667 5663 5658 5654 5649 5644 5639 5634 5629 5624 5619 5614 5609 5603 5598 5593 5588 5583 5578 5572 5567 5561 5555 5549 5544 5538 5532 5527 5521 5514 5507 5501 5494 5487 5481 5475 5468 5462 5455
5805 5804 5803 5801 5800 5798 5796 5795 5793 5790 5788 5786 5783 5781 5779 5776 5774 5771 5768 5765 5762 5759 5756 5753 5751 5748 5745 5742 5739 5736 5733 5730 5727 5723 5720 5717 5713 5710 5706 5702 5698 5694 5690 5686 5682 5678 5673 5669 5665 5660 5656 5651 5647 5641 5636 5632 5627 5621 5616 5611 5606 5601 5596 5590 5585 5580 5575 5570 5564 5558 5552 5547 5541 5535 5529 5523 5517 5510 5504 5497 5491 5484 5478 5472 5465 5459 5452
5806 5805 5804 5802 5801 5799 5797 5795 5793 5791 5789 5787 5785 5782 5780 5777 5774 5771 5768 5765 5762 5759 5756 5753 5750 5748 5745 5741 5738 5735 5732 5729 5725 5722 5719 5715 5711 5708 5704 5700 5696 5692 5688 5684 5680 5675 5671 5666 5662 5657 5652 5648 5643 5638 5633 5628 5623 5618 5613 5608 5603 5598 5593 5588 5582 5577 5572 5567 5561 5556 5550 5544 5538 5533 5527 5520 5514 5508 5501 5495 5488 5481 5475 5468 5462 5456 5449
5807 5806 5804 5803 5801 5800 5798 5796 5794 5793 5790 5788 5785 5783 5780 5778 5775 5772 5769 5766 5763 5760 5757 5753 5750 5747 5744 5741 5738 5735 5731 5728 5724 5721 5717 5713 5710 5706 5702 5698 5694 5690 5686 5681 5677 5673 5668 5663 5658 5654 5649 5644 5640 5635 5630 5625 5620 5615 5610 5605 5600 5595 5590 5585 5579 5574 5569 5563 5558 5553 5547 5541 5535 5529 5523 5518 5512 5505 5499 5492 5485 5478 5471 5465 5459 5452 5446
5808 5806 5805 5803 5802 5800 5799 5797 5795 5793 5791 5788 5786 5784 5781 5778 5776 5772 5769 5766 5763 5760 5757 5753 5750 5747 5743 5740 5737 5734 5730 5727 5723 5720 5716 5712 5708 5705 5701 5696 5693 5689 5684 5679 5675 5670 5666 5660 5656 5651 5646 5641 5636 5632 5627 5621 5616 5611 5607 5602 5597 5592 5587 5582 5576 5571 5566 5560 5555 5549 5544 5538 5532 5526 5520 5514 5508 5502 5495 5489 5482 5475 5468 5461 5455 5449 5442
5808 5807 5806 5804 5803 5801 5799 5798 5796 5794 5791 5789 5787 5784 5781 5779 5776 5773 5770 5767 5764 5760 5757 5753 5750 5746 5743 5739 5736 5733 5729 5726 5722 5718 5715 5711 5707 5703 5699 5695 5691 5686 5682 5677 5672 5667 5662 5657 5652 5647 5643 5638 5633 5628 5623 5619 5613 5608 5604 5599 5594 5589 5584 5579 5573 5568 5563 5557 5552 5546 5541 5535 5529 5523 5517 5511 5505 5499 5492 5486 5479 5472 5465 5458 5452 5445 5439
5809 5807 5806 5805 5803 5801 5800 5798 5796 5794 5792 5789 5787 5784 5782 5779 5776 5773 5770 5767 5763 5760 5756 5752 5749 5746 5742 5739 5735 5732 5728 5724 5721 5717 5713 5709 5705 5701 5697 5693 5689 5684 5680 5675 5670 5665 5660 5655 5650 5644 5639 5635 5629 5625 5620 5615 5610 5605 5600 5595 5590 5586 5581 5576 5570 5565 5560 5554 5549 5544 5538 5532 5526 5520 5514 5508 5502 5496 5489 5483 5477 5470 5463 5455 5449 5442 5436
5809 5808 5806 5805 5803 5802 5800 5798 5796 5794 5792 5789 5787 5784 5782 5779 5776 5773 5770 5766 5763 5759 5756 5752 5749 5746 5742 5739 5735 5731 5727 5723 5719 5715 5712 5708 5704 5700 5696 5691 5687 5682 5678 5673 5668 5663 5657 5652 5647 5642 5637 5632 5627 5621 5617 5612 5607 5602 5597 5592 5587 5583 5578 5573 5568 5562 5557 5552 5546 5541 5535 5529 5523 5517 5511 5505 5499 5493 5487 5480 5474 5468 5461 5453 5446 5439 5433
5809 5808 5807 5805 5803 5802 5800 5798 5796 5794 5792 5789 5787 5784 5782 5779 5776 5773 5770 5766 5763 5759 5756 5753 5749 5746 5742 5738 5734 5731 5726 5722 5718 5715 5711 5707 5702 5698 5694 5690 5685 5681 5676 5671 5665 5660 5655 5650 5645 5639 5634 5629 5624 5619 5613 5609 5604 5599 5594 5589 5584 5580 5575 5570 5565 5559 5554 5549 5543 5538 5532 5527 5521 5515 5509 5503 5497 5491 5484 5478 5471 5465 5458 5451 5444 5437 5430
5809 5808 5807 5805 5803 5802 5800 5798 5796 5794 5792 5789 5787 5784 5782 5779 5776 5773 5769 5766 5763 5760 5756 5753 5749 5745 5741 5738 5734 5730 5726 5721 5717 5713 5709 5705 5701 5696 5692 5688 5683 5678 5674 5668 5663 5659 5654 5648 5643 5637 5632 5626 5621 5616 5611 5606 5601 5596 5591 5586 5581 5576 5571 5566 5561 5556 5551 5546 5540 5535 5530 5524 5518 5512 5506 5500 5494 5487 5481 5474 5468 5461 5455 5448 5441 5434 5428
5809 5808 5806 5805 5803 5801 5800 5798 5796 5794 5791 5789 5787 5784 5781 5779 5776 5773 5769 5766 5763 5760 5756 5752 5748 5745 5741 5737 5733 5729 5725 5721 5716 5712 5707 5703 5699 5694 5690 5685 5681 5676 5671 5666 5661 5656 5651 5646 5641 5635 5630 5624 5619 5613 5608 5603 5598 5593 5588 5583 5578 5573 5568 5563 5558 5553 5548 5543 5537 5532 5527 5521 5515 5509 5503 5497 5490 5484 5478 5471 5465 5458 5452 5445 5439 5432 5425
5809 5807 5806 5805 5803 5801 5799 5797 5795 5793 5791 5789 5786 5784 5781 5778 5775 5772 5769 5766 5763 5759 5755 5751 5748 5744 5740 5736 5732 5728 5724 5720 5715 5711 5706 5701 5697 5692 5688 5683 5679 5674 5669 5664 5659 5654 5649 5644 5638 5633 5628 5623 5617 5611 5606 5601 5595 5590 5585 5580 5575 5570 5565 5560 5555 5550 5545 5539 5534 5529 5523 5518 5512 5506 5500 5494 5488 5481 5475 5468 5462 5455 5449 5442 5436 5429 5422
5808 5807 5806 5804 5802 5801 5799 5797 5795 5793 5790 5788 5786 5783 5780 5777 5774 5771 5768 5765 5761 5757 5754 5750 5747 5743 5739 5735 5731 5727 5723 5719 5714 5709 5705 5700 5695 5691 5686 5681 5676 5671 5666 5661 5656 5651 5647 5642 5637 5631 5626 5620 5615 5610 5604 5598 5593 5587 5582 5577 5572 5567 5562 5557 5552 5547 5542 5536 5531 5526 5520 5515 5509 5503 5497 5491 5485 5478 5472 5465 5459 5452 5446 5439 5433 5426 5419
5807 5806 5805 5803 5801 5800 5798 5796 5794 5792 5790 5787 5785 5782 5779 5776 5773 5770 5767 5763 5760 5756 5752 5749 5745 5741 5737 5733 5729 5725 5721 5717 5713 5708 5703 5698 5694 5689 5684 5679 5674 5669 5664 5659 5654 5649 5644 5639 5634 5629 5624 5618 5613 5607 5601 5596 5590 5585 5579 5574 5569 5564 5559 5554 5549 5544 5539 5533 5528 5523 5517 5512 5506 5500 5494 5488 5482 5476 5469 5463 5456 5450 5443 5437 5430 5423 5416
5806 5805 5804 5802 5800 5799 5797 5795 5793 5791 5788 5786 5783 5781 5778 5775 5771 5768 5765 5761 5758 5755 5751 5747 5744 5740 5736 5732 5728 5723 5719 5715 5710 5706 5701 5696 5691 5687 5682 5677 5672 5667 5662 5657 5652 5646 5641 5636 5631 5626 5621 5616 5610 5605 5599 5593 5588 5582 5576 5571 5566 5561 5555 5550 5545 5541 5536 5530 5525 5520 5515 5509 5503 5497 5491 5485 5479 5473 5467 5460 5454 5447 5440 5434 5428 5421 5414
5805 5804 5802 5801 5799 5798 5796 5794 5791 5789 5787 5784 5782 5779 5776 5773 5770 5767 5763 5760 5757 5753 5749 5746 5742 5738 5734 5730 5726 5722 5717 5712 5708 5704 5699 5694 5689 5684 5679 5674 5669 5664 5660 5655 5649 5644 5639 5634 5629 5623 5618 5613 5607 5602 5596 5590 5585 5579 5573 5568 5562 5557 5552 5547 5542 5537 5532 5527 5522 5517 5512 5506 5500 5494 5488 5482 5476 5470 5464 5457 5451 5445 5438 5431 5425 5418 5412
5804 5802 5801 5799 5798 5796 5794 5792 5790 5788 5785 5783 5780 5777 5774 5771 5768 5765 5762 5759 5755 5752 5748 5744 5740 5736 5732 5728 5724 5719 5715 5710 5706 5701 5697 5692 5687 5682 5677 5671 5666 5662 5657 5652 5647 5641 5636 5631 5626 5620 5615 5609 5604 5598 5593 5587 5581 5576 5570 5564 5559 5554 5549 5544 5539 5534 5529 5525 5519 5514 5509 5503 5498 5492 5486 5480 5474 5468 5461 5455 5448 5442 5435 5428 5422 5416 5409
5802 5801 5800 5798 5796 5794 5792 5790 5788 5786 5783 5781 5778 5775 5773 5770 5767 5763 5760 5757 5753 5750 5746 5743 5739 5735 5730 5726 5722 5717 5713 5708 5703 5699 5694 5690 5685 5680 5675 5669 5664 5658 5654 5649 5644 5638 5633 5628 5623 5617 5612 5607 5601 5596 5590 5584 5579 5573 5567 5561 5556 5551 5546 5540 5536 5531 5526 5521 5517 5511 5506 5501 5495 5489 5483 5477 5471 5465 5459 5452 5446 5439 5433 5426 5419 5413 5406
5801 5799 5798 5797 5795 5793 5791 5789 5786 5784 5782 5779 5776 5774 5771 5768 5765 5762 5758 5755 5751 5748 5744 5741 5737 5733 5728 5724 5720 5716 5711 5706 5701 5696 5692 5687 5683 5677 5672 5667 5661 5655 5650 5645 5641 5636 5630 5625 5620 5615 5609 5604 5598 5593 5587 5582 5576 5570 5564 5559 5553 5547 5542 5537 5532 5528 5523 5518 5513 5508 5503 5498 5492 5487 5481 5475 5469 5463 5456 5450 5443 5437 5430 5424 5417 5410 5404
5799 5798 5796 5795 5793 5791 5789 5787 5784 5782 5780 5777 5775 5772 5769 5766 5763 5760 5756 5753 5749 5746 5742 5738 5735 5731 5726 5722 5718 5714 5709 5704 5699 5694 5689 5684 5680 5675 5670 5664 5659 5654 5648 5643 5638 5633 5628 5623 5618 5612 5606 5601 5595 5590 5584 5579 5573 5567 5561 5556 5550 5544 5539 5534 5529 5524 5520 5515 5510 5505 5500 5495 5489 5484 5478 5472 5466 5460 5454 5448 5441 5434 5428 5421 5414 5408 5401
5797 5796 5794 5793 5791 5789 5787 5785 5783 5780 5778 5775 5773 5770 5767 5764 5761 5757 5754 5750 5747 5743 5739 5736 5732 5728 5724 5720 5716 5712 5707 5702 5697 5692 5686 5681 5677 5672 5667 5662 5657 5652 5646 5641 5636 5631 5626 5620 5615 5609 5603 5598 5593 5587 5582 5576 5570 5564 5559 5553 5547 5541 5536 5531 5526 5521 5516 5512 5507 5502 5497 5492 5486 5481 5475 5469 5463 5457 5451 5445 5439 5432 5426 5419 5412 5405 5399
5795 5793 5792 5790 5789 5787 5785 5783 5781 5778 5776 5773 5770 5768 5765 5762 5758 5755 5752 5748 5744 5741 5737 5733 5729 5726 5722 5717 5713 5709 5704 5700 5695 5689 5684 5679 5674 5670 5665 5659 5654 5649 5644 5638 5633 5627 5622 5618 5613 5607 5601 5595 5590 5584 5579 5573 5567 5561 5556 5550 5544 5538 5533 5528 5523 5518 5513 5508 5503 5498 5493 5488 5483 5478 5472 5466 5460 5454 5448 5442 5436 5430 5423 5417 5410 5403 5396
5793 5791 5790 5788 5786 5784 5782 5780 5778 5776 5773 5771 5768 5765 5762 5759 5756 5753 5749 5746 5742 5738 5734 5730 5726 5722 5718 5714 5710 5706 5701 5697 5693 5688 5682 5677 5672 5667 5663 5658 5652 5647 5642 5637 5631 5625 5620 5615 5610 5604 5599 5593 5587 5582 5576 5570 5564 5559 5553 5547 5541 5535 5530 5524 5519 5514 5510 5505 5500 5495 5490 5485 5480 5475 5469 5464 5458 5452 5445 5440 5433 5427 5421 5415 5408 5401 5394
5790 5789 5787 5786 5784 5782 5780 5778 5776 5773 5771 5768 5765 5763 5760 5757 5753 5750 5746 5743 5739 5735 5731 5727 5723 5719 5715 5711 5707 5703 5698 5694 5690 5686 5680 5675 5670 5665 5660 5656 5651 5645 5640 5635 5629 5623 5617 5612 5607 5601 5596 5590 5584 5579 5573 5567 5561 5556 5550 5544 5538 5532 5527 5521 5516 5511 5507 5502 5497 5492 5487 5482 5477 5472 5466 5461 5455 5449 5443 5437 5431 5424 5418 5412 5406 5399 5392